Regional Weather Roundup
Issued by NWS

Home | Current Version | Previous Version | Text Only | Print | Product List | Glossary Off
Versions: 1 2 3 4 5 6 7 8 9 10 11 12 13 14 15 16 17 18 19 20 21 22 23 24 25 26 27 28 29 30 31 32 33 34 35 36 37 38 39 40 41 42 43 44 45 46 47 48 49 50

000
ASUS45 KPSR 181000
RWRAZ

PRELIMINARY ARIZONA REGIONAL HOURLY WEATHER ROUNDUP
NATIONAL WEATHER SERVICE PHOENIX AZ
300 AM MST FRI APR 18 2014

NOTE: FAIR INDICATES FEW OR NO CLOUDS BELOW 12,000 FEET WITH NO
SIGNIFICANT WEATHER AND/OR OBSTRUCTIONS TO VISIBILITY.

AZZ001>003-036-181100-
NORTHWEST ARIZONA

CITY           SKY/WX    TMP DP  RH WIND       PRES   REMARKS
KINGMAN        FAIR      55  16  21 SE7       29.89F
$$

AZZ004>008-015-016-018-181100-
NORTH CENTRAL ARIZONA

CITY           SKY/WX    TMP DP  RH WIND       PRES   REMARKS
GRAND CANYON   FAIR      31  15  52 CALM      30.08F
WILLIAMS       FAIR      41  16  36 SE12      30.14F
PRESCOTT       FAIR      49  22  34 S8        29.99F
FLAGSTAFF      FAIR      37  19  48 CALM      30.09F
PAYSON         FAIR      52  19  28 CALM      30.02F
PAGE           FAIR      60  21  22 SE3       29.95S
$$

AZZ009>014-017-181100-
NORTHEAST ARIZONA

CITY           SKY/WX    TMP DP  RH WIND       PRES   REMARKS
WINSLOW        NOT AVBL
SAINT JOHNS    FAIR      48  19  31 CALM      30.06F
WINDOW ROCK    FAIR      31  15  52 CALM      30.13F
SHOW LOW       FAIR      45  16  31 S5        30.11F
$$

AZZ023-181100-
GREATER PHOENIX AREA

CITY           SKY/WX    TMP DP  RH WIND       PRES   REMARKS
PHOENIX        CLOUDY    76  33  21 CALM      29.82R
LUKE AFB       NOT AVBL
DEER VALLEY    FAIR      69  30  23 E6        29.84R
SCOTTSDALE     FAIR      72  32  23 N5        29.86S
$$

AZZ027-028-181100-
SOUTHWEST MARICOPA COUNTY AND PINAL COUNTY

CITY           SKY/WX    TMP DP  RH WIND       PRES   REMARKS
CASA GRANDE    FAIR      70  32  24 CALM      29.86S
$$

AZZ503-504-507>509-181100-
SOUTHEAST ARIZONA

CITY           SKY/WX    TMP DP  RH WIND       PRES   REMARKS
TUCSON         FAIR      69  27  20 SE6       29.93F
DAVIS-MONTHAN  FAIR      65  29  25 S1        29.92S
NOGALES        FAIR      59  36  42 NE3       29.98F
SIERRA VISTA   CLOUDY    57  23  26 S8        30.02S
SAFFORD        FAIR      70  18  13 E15       29.92F
$$

AZZ020-021-025-026-031-181100-
SOUTHWEST ARIZONA

CITY           SKY/WX    TMP DP  RH WIND       PRES   REMARKS
YUMA           FAIR      72  45  37 SE10      29.76F
$$

CAZ031-033-041-043-047-048-061-181100-
SOUTHERN CALIFORNIA

CITY           SKY/WX    TMP DP  RH WIND       PRES   REMARKS
DOWNTOWN L.A.  CLOUDY    62  52  69 E6        29.86F
L.A. AIRPORT   CLOUDY    62  52  69 E9        29.87F
SAN DIEGO      MOCLDY    62  52  69 S5        29.89F
BURBANK        CLOUDY    59  52  77 SE8       29.87F
ONTARIO        CLOUDY    59  53  80 CALM      29.88F
RIVERSIDE      CLOUDY    59  53  80 W3        29.89S
PALM SPRINGS   FAIR      68  52  56 NW7       29.79F
EL CENTRO NAS  FAIR      64  56  75 SE6       29.74S
IMPERIAL       FAIR      65  53  65 E5        29.74F
BLYTHE         FAIR      72  39  30 S8        29.77S
$$

NVZ020-UTZ003-181100-
SOUTHERN NEVADA-UTAH

CITY           SKY/WX    TMP DP  RH WIND       PRES   REMARKS
LAS VEGAS      NOT AVBL
SALT LAKE CITY MOCLDY    65  25  22 S20G29    29.81S
$$

NMZ009-TXZ055-181100-
NEW MEXICO-WEST TEXAS

CITY           SKY/WX    TMP DP  RH WIND       PRES   REMARKS
ALBUQUERQUE    PTCLDY    49  26  41 N9        30.14F
EL PASO        FAIR      59  35  40 CALM      30.09S
$$


........................KEY........................
SKY/WX - SKY CONDITION/WEATHER
TMP    - TEMPERATURE IN FAHRENHEIT
DP     - DEW POINT IN FAHRENHEIT
RH     - RELATIVE HUMIDITY IN PERCENT
WIND   - DIRECTION AND SPEED IN MILES PER HOUR (MPH)
VRB    - VARIABLE WIND DIRECTION
PRES   - MEAN SEA LEVEL PRESSURE IN INCHES OF MERCURY
         F - FALLING PRESSURE   R - RISING PRESSURE
         S - STEADY PRESSURE
VSB    - VISIBILITY IN MILES
HX     - HEAT INDEX IN FAHRENHEIT
WCI    - WIND CHILL INDEX IN FAHRENHEIT
TC     - TEMPERATURE IN CELSIUS WHICH IS ALSO KNOWN AS
         TEMPERATURE IN CENTIGRADE
AFB    - AIR FORCE BASE
         LUKE AFB IS LUKE AIR FORCE BASE
         DAVIS-MONTHAN IS DAVIS-MONTHAN AIR FORCE BASE
NAS    - NAVAL AIR STATION
         EL CENTRO NAS IS EL CENTRO NAVAL AIR STATION
N/A    - NOT AVAILABLE



USA.gov is the U.S. government's official web portal to all federal, state and local government web resources and services.